KA8UPW-1 Weather Reports


time (UTC)temp
C
wind
direction
speed
KPH
gust
KPH
rain 1hr
cm
rain 24hr
cm
rain mn
cm
humidity
%
barometer
mb
20260504050004 10 0 0.0 0.0 0.00 0.00 0.00 64 1009.6
20260504045623 10 0 0.0 0.0 0.00 0.00 0.00 64 1009.7
20260504044720 10 0 0.0 0.0 0.00 0.00 0.00 65 1009.7
20260504043604 10 0 0.0 0.0 0.00 0.00 0.00 65 1009.7
20260504042703 10 0 0.0 0.0 0.00 0.00 0.00 67 1009.8
20260504041803 10 0 0.0 0.0 0.00 0.00 0.00 67 1009.9
20260504040904 10 0 0.0 0.0 0.00 0.00 0.00 68 1009.9
20260504040009 9 0 0.0 0.0 0.00 0.00 0.00 68 1009.9
20260504035403 9 0 0.0 0.0 0.00 0.00 0.00 69 1010.0
20260504034503 9 0 0.0 0.0 0.00 0.00 0.00 69 1010.0
20260504033818 9 0 0.0 0.0 0.00 0.00 0.00 69 1010.2
20260504032703 8 0 0.0 0.0 0.00 0.00 0.00 70 1010.3
20260504032017 8 0 0.0 0.0 0.00 0.00 0.00 71 1010.3
20260504030904 8 0 0.0 0.0 0.00 0.00 0.00 71 1010.4
20260504030004 9 0 0.0 0.0 0.00 0.00 0.00 72 1010.5
20260504025403 9 0 0.0 0.0 0.00 0.00 0.00 72 1010.6
20260504024504 9 0 0.0 0.0 0.00 0.00 0.00 72 1010.6
20260504023603 9 0 0.0 0.0 0.00 0.00 0.00 72 1010.7
20260504022703 10 0 0.0 0.0 0.00 0.00 0.00 72 1010.8
20260504021803 10 0 0.0 0.0 0.00 0.00 0.00 72 1010.7
20260504020903 10 0 0.0 0.0 0.00 0.00 0.00 72 1010.7
20260504015619 10 0 0.0 0.0 0.00 0.00 0.00 71 1010.7
20260504014504 10 0 0.0 0.0 0.00 0.00 0.00 71 1010.7
20260504013819 10 0 0.0 0.0 0.00 0.00 0.00 72 1010.7
20260504012703 10 0 0.0 0.0 0.00 0.00 0.00 71 1010.7
20260504011804 10 0 0.0 0.0 0.00 0.00 0.00 70 1010.7
20260504011121 10 0 0.0 0.0 0.00 0.00 0.00 70 1010.8
20260504010004 10 0 0.0 0.0 0.00 0.00 0.00 69 1010.9
20260504005404 10 0 0.0 0.0 0.00 0.00 0.00 69 1011.0
20260504004504 10 0 0.0 0.0 0.00 0.00 0.00 68 1011.2
20260504003604 10 0 0.0 0.0 0.00 0.00 0.00 67 1011.1
20260504002704 10 0 0.0 0.0 0.00 0.00 0.00 66 1011.1
20260504001804 10 0 0.0 0.0 0.00 0.00 0.00 66 1011.2
20260504000903 10 0 0.0 0.0 0.00 0.00 0.00 65 1011.2
20260504000004 11 0 0.0 0.0 0.00 0.00 0.00 63 1011.1
20260503235404 11 0 0.0 0.0 0.00 0.00 0.00 62 1011.0
20260503234504 11 0 0.0 0.0 0.00 0.00 0.00 59 1011.0
20260503233820 12 0 0.0 0.0 0.00 0.00 0.00 56 1010.8
20260503232703 13 0 0.0 0.0 0.00 0.00 0.00 46 1010.4
20260503231804 13 0 0.0 0.0 0.00 0.00 0.00 46 1010.4
20260503230903 13 0 0.0 0.0 0.00 0.00 0.00 45 1010.5
20260503230004 13 0 0.0 0.0 0.00 0.00 0.00 45 1010.5
20260503225404 14 0 0.0 0.0 0.00 0.00 0.00 45 1010.6
20260503224503 14 0 0.0 0.0 0.00 0.00 0.00 44 1010.6
20260503223604 14 0 0.0 0.0 0.00 0.00 0.00 45 1010.6
20260503222703 14 0 0.0 0.0 0.00 0.00 0.00 44 1010.7
20260503222021 14 0 0.0 0.0 0.00 0.00 0.00 45 1010.9
20260503220903 14 0 0.0 0.0 0.00 0.00 0.00 43 1010.9
20260503220004 14 0 0.0 0.0 0.00 0.00 0.00 43 1010.9
20260503215617 14 0 0.0 0.0 0.00 0.00 0.00 43 1011.0
20260503214504 14 0 0.0 0.0 0.00 0.00 0.00 44 1011.0
20260503213822 14 0 0.0 0.0 0.00 0.00 0.00 44 1011.0
20260503212919 15 0 0.0 0.0 0.00 0.00 0.00 44 1011.0
20260503212021 15 0 0.0 0.0 0.00 0.00 0.00 44 1011.0
20260503210904 15 0 0.0 0.0 0.00 0.00 0.00 44 1011.2
20260503210005 15 0 0.0 0.0 0.00 0.00 0.00 44 1011.2
20260503205403 15 0 0.0 0.0 0.00 0.00 0.00 45 1011.2
20260503204503 15 0 0.0 0.0 0.00 0.00 0.00 43 1011.3
20260503203603 15 0 0.0 0.0 0.00 0.00 0.00 43 1011.3
20260503202920 15 0 0.0 0.0 0.00 0.00 0.00 44 1011.5
20260503202017 15 0 0.0 0.0 0.00 0.00 0.00 44 1011.4
20260503200903 15 0 0.0 0.0 0.00 0.00 0.00 44 1011.6
20260503200004 14 0 0.0 0.0 0.00 0.00 0.00 46 1011.7
20260503195404 14 0 0.0 0.0 0.00 0.00 0.00 43 1011.8
20260503194503 15 0 0.0 0.0 0.00 0.00 0.00 43 1011.9
20260503193603 15 0 0.0 0.0 0.00 0.00 0.00 44 1012.1
20260503192703 15 0 0.0 0.0 0.00 0.00 0.00 44 1012.1
20260503191803 14 0 0.0 0.0 0.00 0.00 0.00 45 1012.3
20260503190903 14 0 0.0 0.0 0.00 0.00 0.00 44 1012.5
20260503190004 15 0 0.0 0.0 0.00 0.00 0.00 46 1012.7
20260503185405 14 0 0.0 0.0 0.00 0.00 0.00 43 1012.8
20260503184721 14 0 0.0 0.0 0.00 0.00 0.00 45 1012.8
20260503183603 14 0 0.0 0.0 0.00 0.00 0.00 44 1013.0
20260503182921 14 0 0.0 0.0 0.00 0.00 0.00 44 1013.0
20260503182018 14 0 0.0 0.0 0.00 0.00 0.00 42 1013.2
20260503180904 14 0 0.0 0.0 0.00 0.00 0.00 45 1013.2
20260503180218 14 0 0.0 0.0 0.00 0.03 0.00 45 1013.3
20260503175403 15 0 0.0 0.0 0.00 0.03 0.00 43 1013.4
20260503174503 15 0 0.0 0.0 0.00 0.03 0.00 45 1013.4
20260503173608 15 0 0.0 0.0 0.00 0.03 0.00 45 1013.5
20260503172703 14 0 0.0 0.0 0.00 0.03 0.00 48 1013.6
20260503172019 14 0 0.0 0.0 0.00 0.03 0.00 47 1013.7
20260503170903 14 0 0.0 0.0 0.00 0.03 0.00 53 1013.9
20260503130903 7 0 0.0 0.0 0.00 0.10 0.00 61 1015.4
20260503110217 0 0 0.0 0.0 0.00 0.10 0.00 86 1014.9
20260503080903 0 0 0.0 0.0 0.00 0.10 0.00 90 1014.6
20260503072703 0 0 0.0 0.0 0.00 0.10 0.00 89 1014.6
20260503071803 1 0 0.0 0.0 0.00 0.10 0.00 90 1014.6
20260503070903 1 0 0.0 0.0 0.00 0.10 0.00 89 1014.6